Location: Unspecified
(0.0000°N, 0.0000°E)
Time: 09:46:28
(UTC+00:00)

A-11 Canister half - Pass Details

Date: 19 June 2024
Orbit: 1515 x 1684 km, 47.2° (Epoch: 23 July)

Event Time Altitude Azimuth Distance (km) Brightness Sun altitude
Rises 02:58:29 0° 327° (NNW) 4,702 11.5 -41.1°
Reaches altitude 10° 03:01:36 10° 330° (NNW) 3,703 11.0 -40.4°
Maximum altitude 03:10:49 66° 51° (NE) 1,633 9.1 -38.4°
Drops below altitude 10° 03:19:56 10° 131° (SE) 3,675 11.1 -36.5°
Sets 03:23:00 0° 134° (SE) 4,665 11.7 -35.8°
